Погода в Раменском

Россия / Московская область     56°39′22″N   37°14′08″E
темп.,
°C
ветер,
м/с
пор.,
м/с
влажн.,
%
обл.,
%
осадки,
мм/ч
давл.,
гПа
погр.,
м
2 декабря, чт
чт200:00−7з41088100 0.1 994664
03:00−7з4989100 0.1 996656
06:00−7зюз4990100 0.1 998549
09:00−9юз3893100 0.1 1000291
12:00−6юз3683100 0.0 1000356
15:00−5ю3686100 0.0 999419
18:00−4ююв4119498 1.1 998540
21:00−4ююв4109497 1.3 996482
3 декабря, пт
пт300:00−2ю41294100 0.3 995545
03:00+1ююз41298100 0.8 995773
06:00+1юз5118723 0.2 996715
09:00−1ююз41097100 0.3 998389
12:00+1юз41084100 0.0 999885
15:00+1ююз41083100 0.0 1000628
18:000ююз3993100 0.1 1000531
21:000ю2799100 1.9 999469
4 декабря, сб
сб400:000зюз3894100 0.9 999600
03:00−1зюз41088100 1.0 999874
06:00−2юз5117599 0.1 9991100
09:00−3юз61390100 0.2 10001083
12:00−3зюз61287100 0.4 10021067
15:00−3зюз51084100 0.4 1005934
18:00−4з51087100 0.1 1008916
21:00−6з4108578 0.1 1010668
5 декабря, вс
вс500:00−6з398758 0.0 1013553
03:00−8з28938 0.0 1015301
06:00−9з139758 0.0 101669
09:00−9ссз1194100 0.0 101859
12:00−6юв118596 0.0 1019222
15:00−6в239132 0.0 1020147
18:00−7всв2595100 0.0 1021168
21:00−7всв3694100 0.1 1022188
6 декабря, пн
пн600:00−7в4994100 0.4 1023296
03:00−7в41093100 1.4 1024318
06:00−8в51291100 0.1 1024407
09:00−8в51489100 0.1 1024413
12:00−6вюв51385100 0.0 1025494
15:00−6вюв51390100 0.3 1024551
18:00−6вюв51494100 2.1 1023640
21:00−5вюв41395100 3.5 1022639